Latest Weather Observations for Mount Ginini

IDN60801

Issued at 12:05 pm EST Thursday 2 October 2014 (issued every 30 minutes, with the page automatically refreshed every 10 minutes)

About weather observations | Map of weather stations | Latest weather observations for NSW | Other Formats
Station Details ID: 070349 Name: MOUNT GININI AWS Lat: -35.53 Lon: 148.77 Height: 1760.0 m
Data from the previous 72 hours. | See also: Recent months at Mount Ginini
Date/Time
EST
Temp
°C
App
Temp
°C
Dew
Point
Rel
Hum
%
Delta-T
°C
Wind Press
QNH
hPa
Press
MSL
hPa
Rain
since 9 am
mm
Dir
 
Spd
km/h
Gust
km/h
Spd
kts
Gust
kts
02/11:00am 11.6 6.0 0.1 45 5.2 WSW 19 33 10 18 - - 0.0
02/10:30am 11.0 5.7 -0.5 45 5.1 SW 17 32 9 17 - - 0.0
02/10:00am 10.1 4.3 -1.3 45 5.0 SW 19 37 10 20 - - 0.0
02/09:30am 8.5 2.5 -1.3 50 4.2 SW 20 33 11 18 - - 0.0
02/09:00am 7.3 1.2 -2.2 51 4.0 SSW 20 33 11 18 - - 0.0
02/08:30am 6.4 -0.4 -1.5 57 3.3 SSW 24 35 13 19 - - 0.0
02/08:00am 6.0 -1.1 -1.4 59 3.1 SSW 26 37 14 20 - - 0.0
02/07:30am 3.7 -2.9 -3.3 60 2.7 SSW 22 30 12 16 - - 0.0
02/07:00am 2.6 -4.5 -4.4 60 2.8 SSW 24 32 13 17 - - 0.0
02/06:30am 1.7 -5.4 -4.8 62 2.5 SSW 24 32 13 17 - - 0.0
02/06:00am 1.1 -6.4 -4.9 64 2.2 SSW 26 33 14 18 - - 0.0
02/05:30am 0.6 -6.5 -4.6 68 1.9 SSW 24 32 13 17 - - 0.0
02/05:00am 0.4 -7.1 -4.2 71 1.7 SW 26 35 14 19 - - 0.0
02/04:30am 0.3 -7.1 -4.0 73 1.6 SW 26 33 14 18 - - 0.0
02/04:00am -0.1 -6.8 -3.8 76 1.4 SW 22 30 12 16 - - 0.0
02/03:30am -0.3 -6.0 -3.8 77 1.3 SW 17 26 9 14 - - 0.0
02/03:00am 0.1 -5.7 -4.5 71 1.7 SW 17 22 9 12 - - 0.0
02/02:30am -0.2 -5.3 -4.8 71 1.6 WSW 13 19 7 10 - - 0.0
02/02:00am -1.0 -5.2 -3.8 81 1.0 SW 9 13 5 7 - - 0.0
02/01:30am -0.7 -5.6 -3.7 80 1.1 SW 13 19 7 10 - - 0.0
02/01:00am -0.3 -4.6 -5.3 69 1.8 WSW 9 11 5 6 - - 0.0
02/12:30am -0.8 -4.9 -3.3 83 0.9 SW 9 11 5 6 - - 0.0
02/12:00am -0.6 -4.7 -3.1 83 0.9 SSW 9 15 5 8 - - 0.0
 
Date/Time
EST
Temp
°C
App
Temp
°C
Dew
Point
Rel
Hum
%
Delta-T
°C
Wind Press
QNH
hPa
Press
MSL
hPa
Rain
since 9 am
mm
Dir
 
Spd
km/h
Gust
km/h
Spd
kts
Gust
kts
01/11:30pm -0.8 -4.8 -2.5 88 0.6 SSW 9 13 5 7 - - 0.0
01/11:00pm -0.9 -5.6 -1.9 93 0.3 SSW 13 20 7 11 - - 0.0
01/10:30pm -1.0 -5.4 -2.1 92 0.4 SSW 11 19 6 10 - - 0.0
01/10:00pm -0.7 -4.8 -2.7 86 0.7 SSW 9 13 5 7 - - 0.0
01/09:30pm -0.6 -4.3 -3.0 84 0.9 SSW 7 13 4 7 - - 0.0
01/09:00pm -0.7 -4.8 -3.1 84 0.9 SSW 9 17 5 9 - - 0.0
01/08:30pm -0.5 -5.8 -3.3 81 1.0 SSW 15 22 8 12 - - 0.0
01/08:00pm -0.3 -6.0 -4.0 76 1.3 SSW 17 24 9 13 - - 0.0
01/07:30pm -0.1 -5.5 -4.7 71 1.7 SW 15 22 8 12 - - 0.0
01/07:00pm 0.5 -4.9 -4.7 68 1.9 SSW 15 24 8 13 - - 0.0
01/06:30pm 1.1 -4.7 -5.1 63 2.3 SSW 17 24 9 13 - - 0.0
01/06:00pm 2.3 -2.8 -5.6 56 3.0 SW 13 22 7 12 - - 0.0
01/05:30pm 3.9 -0.8 -5.3 51 3.4 SW 11 19 6 10 - - 0.0
01/05:00pm 4.9 0.2 -5.2 48 3.8 SSW 11 19 6 10 - - 0.0
01/04:30pm 5.5 0.8 -4.6 48 3.9 SW 11 20 6 11 - - 0.0
01/04:00pm 6.5 1.9 -4.3 46 4.2 SW 11 22 6 12 - - 0.0
01/03:30pm 6.5 2.8 -4.3 46 4.2 SW 6 17 3 9 - - 0.0
01/03:00pm 6.5 1.8 -4.6 45 4.3 WSW 11 22 6 12 - - 0.0
01/02:30pm 5.7 0.9 -6.5 41 4.5 WSW 11 22 6 12 - - 0.0
01/02:00pm 5.0 0.5 -6.5 43 4.2 SSW 9 19 5 10 - - 0.0
01/01:30pm 6.0 -0.3 -6.2 41 4.5 SSW 19 28 10 15 - - 0.0
01/01:00pm 6.0 1.3 -4.7 46 4.1 SW 11 30 6 16 - - 0.0
01/12:30pm 4.5 -0.3 -6.4 45 4.0 SSW 11 30 6 16 - - 0.0
01/12:00pm 3.4 -0.7 -6.3 49 3.7 SW 7 20 4 11 - - 0.0
01/11:30am 4.1 -1.9 -6.5 46 3.8 SSW 17 37 9 20 - - 0.0
01/11:00am 4.0 -2.3 -5.5 50 3.5 SSW 19 35 10 19 - - 0.0
01/10:30am 2.7 -3.6 -5.7 54 3.2 SW 19 32 10 17 - - 0.0
01/10:00am 1.8 -5.2 -6.7 53 3.1 SSW 22 39 12 21 - - 0.0
01/09:30am 1.4 -5.9 -6.6 55 2.9 SSW 24 35 13 19 - - 0.0
01/09:00am 0.4 -6.9 -6.4 60 2.4 SW 24 41 13 22 - - 0.2
01/08:30am -0.7 -7.2 -5.7 69 1.7 SW 20 33 11 18 - - 0.2
01/08:00am -2.2 -8.9 -3.9 88 0.5 SSW 22 41 12 22 - - 0.2
01/07:30am -3.1 -9.4 -4.1 93 0.2 SW 20 39 11 21 - - 0.2
01/07:00am -3.7 -10.1 -4.7 93 0.2 SW 20 41 11 22 - - 0.2
01/06:30am -4.0 -11.2 -5.0 93 0.2 SW 24 41 13 22 - - 0.2
01/06:00am -4.2 -11.4 -5.2 93 0.2 SW 24 41 13 22 - - 0.2
01/05:44am -4.2 -12.1 -5.2 93 0.2 WSW 28 48 15 26 - - 0.2
01/05:30am -4.3 -11.6 -6.4 85 0.5 WSW 24 48 13 26 - - 0.2
01/05:06am -3.9 -12.1 -7.5 76 1.0 WSW 28 65 15 35 - - 0.2
01/05:00am -4.0 -11.4 -7.6 76 1.0 WSW 24 44 13 24 - - 0.2
01/04:32am -3.7 -11.8 -6.8 79 0.9 WSW 28 54 15 29 - - 0.2
01/04:30am -3.8 -11.5 -6.4 82 0.7 WSW 26 54 14 29 - - 0.2
01/04:05am -3.3 -11.3 -5.3 86 0.5 WSW 28 72 15 39 - - 0.2
01/04:00am -3.3 -10.4 -4.8 89 0.4 WSW 24 72 13 39 - - 0.2
01/03:30am -2.8 -11.5 -3.8 93 0.2 WSW 33 65 18 35 - - 0.2
01/03:00am -2.7 -10.5 -4.0 91 0.3 WSW 28 54 15 29 - - 0.2
01/02:30am -2.5 -10.9 -6.0 77 1.1 WSW 30 67 16 36 - - 0.2
01/02:00am -1.9 -11.0 -6.8 69 1.6 WSW 33 61 18 33 - - 0.2
01/01:30am -0.9 -9.3 -6.4 66 1.8 WSW 30 54 16 29 - - 0.2
01/01:00am 0.4 -9.7 -5.8 63 2.2 WSW 39 74 21 40 - - 0.2
01/12:56am 0.6 -11.2 -5.8 62 2.3 WSW 48 74 26 40 - - 0.2
01/12:30am 1.0 -7.2 -3.8 70 1.8 WSW 30 56 16 30 - - 0.2
01/12:00am 2.3 -4.9 0.7 89 0.7 WSW 28 56 15 30 - - 0.2
 
Date/Time
EST
Temp
°C
App
Temp
°C
Dew
Point
Rel
Hum
%
Delta-T
°C
Wind Press
QNH
hPa
Press
MSL
hPa
Rain
since 9 am
mm
Dir
 
Spd
km/h
Gust
km/h
Spd
kts
Gust
kts
30/11:30pm 3.0 -4.9 2.1 94 0.4 W 33 72 18 39 - - 0.2
30/11:00pm 4.0 -3.6 3.0 93 0.5 W 32 57 17 31 - - 0.0
30/10:30pm 5.0 -2.3 2.2 82 1.3 W 30 57 16 31 - - 0.0
30/10:00pm 7.5 -0.1 0.5 61 3.1 W 30 54 16 29 - - 0.0
30/09:30pm 8.1 0.3 -0.6 54 3.8 W 30 57 16 31 - - 0.0
30/09:00pm 8.5 0.2 -0.5 53 3.9 W 33 82 18 44 - - 0.0
30/08:59pm 8.5 -0.2 -0.8 52 4.0 W 35 82 19 44 - - 0.0
30/08:30pm 8.7 0.6 -0.6 52 4.1 W 32 57 17 31 - - 0.0
30/08:00pm 8.7 1.4 -0.3 53 4.0 W 28 52 15 28 - - 0.0
30/07:30pm 8.7 1.4 -0.3 53 4.0 W 28 50 15 27 - - 0.0
30/07:00pm 8.7 2.1 -0.3 53 4.0 W 24 52 13 28 - - 0.0
30/06:37pm 8.7 1.3 -0.6 52 4.1 W 28 61 15 33 - - 0.0
30/06:30pm 8.6 2.0 -0.7 52 4.1 W 24 50 13 27 - - 0.0
30/06:00pm 9.0 1.6 -0.6 51 4.2 W 28 52 15 28 - - 0.0
30/05:30pm 9.9 2.6 0.3 51 4.3 W 28 56 15 30 - - 0.0
30/05:07pm 10.6 3.3 0.1 48 4.7 W 28 57 15 31 - - 0.0
30/05:00pm 10.9 4.4 0.6 49 4.7 W 24 44 13 24 - - 0.0
30/04:50pm 11.1 3.9 0.5 48 4.9 WNW 28 56 15 30 - - 0.0
30/04:30pm 11.9 5.3 2.1 51 4.7 W 26 48 14 26 - - 0.0
30/04:00pm 11.5 2.9 0.3 46 5.1 W 35 69 19 37 - - 0.0
30/03:30pm 11.8 3.6 0.6 46 5.2 W 33 61 18 33 - - 0.0
30/03:15pm 12.1 5.1 2.0 50 4.8 W 28 56 15 30 - - 0.0
30/03:00pm 13.6 7.7 3.9 52 4.9 W 24 54 13 29 - - 0.0
30/02:30pm 12.5 4.6 2.1 49 5.0 WNW 33 57 18 31 - - 0.0
30/02:00pm 12.7 5.1 2.8 51 4.8 WNW 32 61 17 33 - - 0.0
30/01:30pm 13.5 6.7 3.3 50 5.1 W 28 61 15 33 - - 0.0
30/01:17pm 13.0 6.0 2.0 47 5.3 W 28 61 15 33 - - 0.0
30/01:00pm 13.8 7.4 3.0 48 5.3 W 26 57 14 31 - - 0.0
30/12:30pm 13.5 6.5 2.1 46 5.5 W 28 61 15 33 - - 0.0
30/12:00pm 12.9 5.8 1.3 45 5.5 W 28 59 15 32 - - 0.0
30/11:43am 13.0 6.0 1.7 46 5.4 W 28 56 15 30 - - 0.0
30/11:30am 13.2 7.0 2.1 47 5.4 W 24 48 13 26 - - 0.0
30/11:02am 12.9 5.9 2.2 48 5.2 W 28 54 15 29 - - 0.0
30/11:00am 12.8 6.3 2.4 49 5.0 W 26 54 14 29 - - 0.0
30/10:31am 12.4 5.4 2.0 49 5.0 W 28 57 15 31 - - 0.0
30/10:30am 12.6 6.0 2.2 49 5.0 W 26 57 14 31 - - 0.0
30/10:00am 11.7 4.6 1.6 50 4.8 W 28 52 15 28 - - 0.0
30/09:30am 10.7 3.5 0.7 50 4.6 W 28 59 15 32 - - 0.0
30/09:14am 10.3 3.0 0.3 50 4.5 W 28 48 15 26 - - 0.0
30/09:00am 10.3 3.9 0.9 52 4.3 W 24 48 13 26 - - 0.0
30/08:30am 9.6 3.7 1.5 57 3.7 W 22 43 12 23 - - 0.0
30/08:00am 9.0 2.6 1.2 58 3.6 W 24 48 13 26 - - 0.0
30/07:30am 8.6 2.6 1.1 59 3.4 W 22 39 12 21 - - 0.0
30/07:00am 7.9 1.8 0.4 59 3.3 W 22 41 12 22 - - 0.0
30/06:30am 7.3 0.8 0.5 62 3.0 W 24 43 13 23 - - 0.0
30/06:00am 7.2 1.1 0.4 62 3.0 W 22 43 12 23 - - 0.0
30/05:30am 6.9 1.1 0.1 62 3.0 W 20 39 11 21 - - 0.0
30/05:00am 6.8 0.6 0.0 62 3.0 W 22 43 12 23 - - 0.0
30/04:30am 7.0 1.4 0.2 62 3.0 W 19 37 10 20 - - 0.0
30/04:00am 7.1 1.3 0.1 61 3.1 W 20 39 11 21 - - 0.0
30/03:30am 7.3 1.6 0.5 62 3.0 W 20 37 11 20 - - 0.0
30/03:00am 7.0 1.5 0.5 63 2.9 W 19 32 10 17 - - 0.0
30/02:30am 7.3 1.6 0.5 62 3.0 W 20 35 11 19 - - 0.0
30/02:00am 7.6 1.9 0.6 61 3.1 W 20 35 11 19 - - 0.0
30/01:30am 8.2 2.2 0.9 60 3.3 WNW 22 39 12 21 - - 0.0
30/01:00am 8.1 2.4 0.8 60 3.3 WNW 20 37 11 20 - - 0.0
30/12:30am 8.4 3.0 1.1 60 3.3 WNW 19 33 10 18 - - 0.0
30/12:00am 8.7 3.1 0.9 58 3.5 WNW 20 37 11 20 - - 0.0
 
Date/Time
EST
Temp
°C
App
Temp
°C
Dew
Point
Rel
Hum
%
Delta-T
°C
Wind Press
QNH
hPa
Press
MSL
hPa
Rain
since 9 am
mm
Dir
 
Spd
km/h
Gust
km/h
Spd
kts
Gust
kts
29/11:30pm 8.5 3.0 0.7 58 3.5 W 19 35 10 19 - - 0.0
29/11:00pm 8.4 2.8 0.1 56 3.7 WNW 19 32 10 17 - - 0.0
29/10:30pm 8.8 3.2 0.0 54 3.9 WNW 19 35 10 19 - - 0.0
29/10:00pm 8.7 3.1 0.2 55 3.8 WNW 19 35 10 19 - - 0.0
29/09:30pm 8.2 2.9 -0.3 55 3.7 W 17 35 9 19 - - 0.0
29/09:00pm 7.8 2.3 0.3 59 3.3 W 19 33 10 18 - - 0.0
29/08:30pm 7.7 2.8 1.8 66 2.7 WNW 17 33 9 18 - - 0.0
29/08:00pm 7.6 2.6 1.5 65 2.8 WNW 17 28 9 15 - - 0.0
29/07:30pm 7.3 2.1 0.3 61 3.1 WNW 17 32 9 17 - - 0.0
29/07:00pm 7.7 2.1 0.0 58 3.4 W 19 35 10 19 - - 0.0
29/06:30pm 7.7 2.7 -1.5 52 3.9 WNW 15 28 8 15 - - 0.0
29/06:00pm 9.0 3.8 -0.1 53 4.0 W 17 30 9 16 - - 0.0
29/05:30pm 11.1 6.4 0.8 49 4.8 W 15 30 8 16 - - 0.0
29/05:00pm 12.3 7.4 -0.2 42 5.7 WNW 15 24 8 13 - - 0.0
29/04:30pm 13.3 7.2 -2.6 33 6.9 W 20 44 11 24 - - 0.0
29/04:00pm 13.7 7.8 -0.7 37 6.6 W 20 37 11 20 - - 0.0
29/03:30pm 14.7 9.4 -0.6 35 7.1 W 17 30 9 16 - - 0.0
29/03:00pm 15.3 10.0 -0.9 33 7.5 W 17 32 9 17 - - 0.0
29/02:30pm 15.4 9.9 -2.1 30 7.9 WNW 17 33 9 18 - - 0.0
29/02:00pm 15.5 10.0 -2.4 29 8.0 W 17 33 9 18 - - 0.0
29/01:30pm 16.0 10.1 -0.7 32 7.8 WNW 20 43 11 23 - - 0.0
29/01:00pm 15.4 9.4 -1.2 32 7.6 W 20 39 11 21 - - 0.0
29/12:30pm 15.5 8.9 -0.7 33 7.5 W 24 41 13 22 - - 0.0

Other Formats:

Comma delimited format used in spreadsheet applications
http://www.bom.gov.au/fwo/IDN60801/IDN60801.95925.axf

JavaScript Object Notation format (JSON) in row-major order
http://www.bom.gov.au/fwo/IDN60801/IDN60801.95925.json